TimeYEKT,TemperatureF,Dew PointF,Humidity,Sea Level PressureIn,VisibilityMPH,Wind Direction,Wind SpeedMPH,Gust SpeedMPH,PrecipitationIn,Events,Conditions,WindDirDegrees,DateUTC
12:00 AM,58,54,82,29.79,6,West,6.7,,,,Partly Cloudy,270,2013-09-03 18:00:00
12:00 AM,59.0,55.4,88,29.80,-9999.0,West,8.9,-,N/A,,Clear,260,2013-09-03 18:00:00
12:30 AM,59.0,55.4,88,29.80,6.2,West,6.7,-,N/A,,Mostly Cloudy,270,2013-09-03 18:30:00
1:00 AM,59.0,55.4,88,29.80,6.2,West,8.9,-,N/A,,Overcast,270,2013-09-03 19:00:00
1:30 AM,59.0,53.6,82,29.80,6.2,West,6.7,-,N/A,,Overcast,260,2013-09-03 19:30:00
2:00 AM,59.0,53.6,82,29.80,6.2,West,6.7,-,N/A,,Mostly Cloudy,270,2013-09-03 20:00:00
2:30 AM,57.2,51.8,82,29.80,6.2,WSW,4.5,-,N/A,,Mostly Cloudy,250,2013-09-03 20:30:00
3:00 AM,57,53,80,29.81,6,West,6.7,,,,Mostly Cloudy,280,2013-09-03 21:00:00
3:00 AM,53.6,51.8,94,29.80,6.2,South,4.5,-,N/A,,Mostly Cloudy,190,2013-09-03 21:00:00
3:30 AM,53.6,51.8,94,29.80,6.2,South,4.5,-,N/A,,Mostly Cloudy,180,2013-09-03 21:30:00
4:00 AM,53.6,51.8,94,29.80,6.2,SSW,6.7,-,N/A,,Mostly Cloudy,210,2013-09-03 22:00:00
4:30 AM,51.8,51.8,100,29.83,6.2,West,2.2,-,N/A,,Mostly Cloudy,280,2013-09-03 22:30:00
5:00 AM,51.8,50.0,94,29.83,6.2,SSW,4.5,-,N/A,,Scattered Clouds,200,2013-09-03 23:00:00
5:30 AM,51.8,50.0,94,29.83,6.2,SSW,4.5,-,N/A,,Scattered Clouds,210,2013-09-03 23:30:00
6:00 AM,54,52,90,29.83,6,SW,2.2,,,,Mostly Cloudy,220,2013-09-04 00:00:00
6:00 AM,50.0,50.0,100,29.83,4.3,WSW,2.2,-,N/A,Fog,Shallow Fog,250,2013-09-04 00:00:00
6:30 AM,50.0,48.2,94,29.83,0.2,SW,4.5,-,N/A,Fog,Fog,220,2013-09-04 00:30:00
7:00 AM,48.2,48.2,100,29.83,4.3,SE,4.5,-,N/A,Fog,Shallow Fog,140,2013-09-04 01:00:00
7:30 AM,50.0,50.0,100,29.83,6.2,East,4.5,-,N/A,,Mostly Cloudy,90,2013-09-04 01:30:00
8:00 AM,51.8,51.8,100,29.86,6.2,East,2.2,-,N/A,,Mostly Cloudy,100,2013-09-04 02:00:00
8:30 AM,53.6,53.6,100,29.86,6.2,SE,2.2,-,N/A,,Mostly Cloudy,130,2013-09-04 02:30:00
9:00 AM,56,53,86,29.85,6,WSW,2.2,,,,,250,2013-09-04 03:00:00
9:00 AM,53.6,53.6,100,29.86,-9999.0,South,4.5,-,N/A,,Clear,190,2013-09-04 03:00:00
9:30 AM,57.2,55.4,94,29.86,6.2,South,4.5,-,N/A,,Mostly Cloudy,180,2013-09-04 03:30:00
10:00 AM,59.0,55.4,88,29.86,6.2,West,4.5,-,N/A,,Mostly Cloudy,260,2013-09-04 04:00:00
10:30 AM,60.8,55.4,82,29.86,6.2,NW,4.5,-,N/A,,Mostly Cloudy,310,2013-09-04 04:30:00
11:00 AM,60.8,55.4,82,29.86,6.2,WNW,4.5,-,N/A,,Mostly Cloudy,290,2013-09-04 05:00:00
11:30 AM,62.6,55.4,77,29.86,6.2,NW,6.7,-,N/A,,Mostly Cloudy,310,2013-09-04 05:30:00
12:00 PM,63,53,62,29.86,6,Calm,Calm,,,,Mostly Cloudy,,2013-09-04 06:00:00
12:00 PM,64.4,55.4,73,29.86,6.2,Variable,2.2,-,N/A,,Mostly Cloudy,0,2013-09-04 06:00:00
12:30 PM,64.4,55.4,73,29.86,6.2,NW,2.2,-,N/A,,Mostly Cloudy,310,2013-09-04 06:30:00
1:00 PM,64.4,53.6,68,29.86,6.2,West,4.5,-,N/A,,Mostly Cloudy,270,2013-09-04 07:00:00
1:30 PM,68.0,53.6,60,29.86,6.2,NW,6.7,-,N/A,,Mostly Cloudy,310,2013-09-04 07:30:00
2:00 PM,66.2,53.6,64,29.89,6.2,SW,6.7,-,N/A,,Mostly Cloudy,220,2013-09-04 08:00:00
2:30 PM,66.2,53.6,64,29.89,6.2,SW,6.7,-,N/A,,Mostly Cloudy,220,2013-09-04 08:30:00
3:00 PM,64,54,62,29.87,12,SSE,4.5,,,Rain,Light Rain Showers,150,2013-09-04 09:00:00
3:00 PM,66.2,53.6,64,29.89,6.2,Calm,Calm,-,N/A,Rain,Light Rain Showers,0,2013-09-04 09:00:00
3:30 PM,66.2,55.4,68,29.89,6.2,Variable,4.5,-,N/A,,Mostly Cloudy,0,2013-09-04 09:30:00
4:00 PM,68.0,53.6,60,29.86,6.2,SSW,2.2,-,N/A,,Mostly Cloudy,210,2013-09-04 10:00:00
4:30 PM,66.2,55.4,68,29.86,4.3,NNW,4.5,-,N/A,Rain,Light Rain Showers,340,2013-09-04 10:30:00
5:00 PM,68.0,55.4,64,29.86,6.2,ENE,4.5,-,N/A,,Mostly Cloudy,70,2013-09-04 11:00:00
5:30 PM,68.0,55.4,64,29.86,6.2,East,4.5,-,N/A,,Mostly Cloudy,90,2013-09-04 11:30:00
6:00 PM,65,53,57,29.85,31,East,4.5,,,,Partly Cloudy,90,2013-09-04 12:00:00
6:00 PM,66.2,53.6,64,29.86,6.2,East,4.5,-,N/A,,Mostly Cloudy,100,2013-09-04 12:00:00
6:30 PM,68.0,55.4,64,29.86,6.2,South,6.7,-,N/A,,Mostly Cloudy,180,2013-09-04 12:30:00
7:00 PM,66.2,53.6,64,29.86,6.2,SSE,6.7,-,N/A,Rain,Light Rain Showers,150,2013-09-04 13:00:00
7:30 PM,64.4,55.4,73,29.86,3.7,NW,6.7,-,N/A,Rain,Light Rain Showers,310,2013-09-04 13:30:00
8:00 PM,62.6,55.4,77,29.86,6.2,South,4.5,-,N/A,,Mostly Cloudy,180,2013-09-04 14:00:00
8:30 PM,62.6,55.4,77,29.89,6.2,South,4.5,-,N/A,,Overcast,190,2013-09-04 14:30:00
9:00 PM,56,53,88,29.90,12,NNW,4.5,,,,,340,2013-09-04 15:00:00
9:00 PM,57.2,53.6,88,29.89,6.2,NNW,6.7,-,N/A,Thunderstorm,Overcast,330,2013-09-04 15:00:00
9:30 PM,57.2,53.6,88,29.92,6.2,ENE,2.2,-,N/A,,Mostly Cloudy,70,2013-09-04 15:30:00
10:00 PM,55.4,53.6,94,29.92,6.2,West,2.2,-,N/A,Fog,Shallow Fog,260,2013-09-04 16:00:00
10:30 PM,53.6,51.8,94,29.92,4.3,Calm,Calm,-,N/A,Fog,Patches of Fog,0,2013-09-04 16:30:00
11:00 PM,51.8,50.0,94,29.92,0.1,West,4.5,-,N/A,Fog,Fog,270,2013-09-04 17:00:00
11:30 PM,50.0,48.2,94,29.92,0.0,SW,2.2,-,N/A,Fog,Fog,230,2013-09-04 17:30:00